Location: Ocean City
(38.3360°N, 75.0850°W)
Time: 06:14:27
(UTC-05:00)

Courier 1B - Visible Passes

Search period start: 15 November 2019 00:00
Search period end: 25 November 2019 00:00
Orbit: 963 x 1209 km, 28.3° (Epoch: 14 November)

Date Brightness Start Highest point End Pass type
(mag) Time Alt. Az. Time Alt. Az. Time Alt. Az.
16 Nov 9.9 05:29:09 10° S 05:32:47 15° SSE 05:36:21 10° ESE visible
17 Nov 10.0 04:37:03 10° S 04:39:15 12° SSE 04:41:25 10° SE visible
18 Nov 9.5 05:33:42 10° SSW 05:38:51 23° SSE 05:43:49 10° ESE visible
19 Nov 9.7 04:40:35 10° SSW 04:45:17 19° SSE 04:49:49 10° ESE visible
20 Nov 9.7 03:49:38 14° S 03:51:42 16° SSE 03:55:32 10° ESE visible
20 Nov 9.1 05:39:05 10° SW 05:44:58 30° SSE 05:50:37 10° ESE visible
21 Nov 10.1 02:59:38 11° SE 02:59:38 11° SE 03:00:39 10° SE visible
21 Nov 9.2 04:46:33 13° SW 04:51:22 27° SSE 04:56:53 10° ESE visible
22 Nov 9.3 03:56:28 22° S 03:57:44 23° SSE 04:03:00 10° ESE visible
22 Nov 8.9 05:44:52 10° WSW 05:51:09 35° S 05:57:07 10° ESE visible
23 Nov 9.8 03:06:20 17° SE 03:06:20 17° SE 03:08:58 10° ESE visible
23 Nov 8.9 04:53:15 18° SW 04:57:30 33° S 05:03:30 10° ESE visible
24 Nov 8.9 04:03:01 30° S 04:03:49 31° SSE 04:09:48 10° ESE visible
24 Nov 8.8 05:50:55 10° WSW 05:57:19 36° S 06:03:24 10° ESE visible
